Weather Roundup
Issued by NWS

Home | Current Version | Previous Version | Graphics & Text | Print | Product List | Glossary Off
Versions: 1 2 3 4 5 6 7 8 9 10 11 12 13 14 15 16 17 18 19 20 21 22 23 24 25 26 27 28 29 30 31 32 33 34 35 36 37 38 39 40 41 42 43 44 45 46 47 48 49 50

000
NZUS93 KARX 270010
HRRWXR

CURRENT HOURLY OBSERVATIONS ACROSS
MUCH OF THE UPPER MISSISSIPPI VALLEY
NATIONAL WEATHER SERVICE LA CROSSE WI
600 PM CST THU FEB 26 2015


...SOUTHEAST MINNESOTA...


CITY           SKY/WX    TMP DP  RH WIND       PRES   REMARKS
ROCHESTER      CLEAR      1  -8  66 NW13      30.39R WCI -17
ROCHESTER/MAYO FAIR       6  -5  59 W10       30.40S WCI  -8
WINONA         CLEAR     10  -4  52 NW7       30.44S WCI   0
AUSTIN         CLEAR      1  -8  66 NW8       30.41S WCI -12
ALBERT LEA     CLEAR      1  -8  66 NW5       30.43R WCI  -8
DODGE CENTER   PTCLDY     3  -6  66 NW10      30.39S WCI -12
PRESTON        CLEAR      2  -8  61 NW9       30.39R WCI -13
OWATONNA       CLEAR      1  -9  60 W9        30.43R WCI -14
FARIBAULT      CLEAR      3  -8  60 W9        30.43S WCI -11
$$

...ELSEWHERE IN MINNESOTA...


CITY           SKY/WX    TMP DP  RH WIND       PRES   REMARKS
MINNEAPOLIS    CLEAR      7  -8  50 NW10      30.44S WCI  -8
INTNL FALLS    PTCLDY     0 -14  51 W6        30.37S WCI -12
DULUTH         CLEAR      6 -11  45 NW9       30.32S WCI  -8
RED WING       CLEAR      9  -9  43 NW5       30.43R WCI   0
REDWOOD FALLS  PTCLDY     2  -7  66 NW10      30.50R WCI -14
MANKATO        CLEAR      1  -9  60 NW13G20   30.46R WCI -16
FAIRMONT       PTCLDY     1  -8  66 NW12      30.45R WCI -15
$$

...SOUTHWEST WISCONSIN...


CITY           SKY/WX    TMP DP  RH WIND       PRES   REMARKS
LA CROSSE      CLEAR      6  -6  57 NW8       30.42R WCI  -7
PRAIRIE DU CHI PTCLDY     9  -6  52 NW8       30.42R WCI  -4
BOSCOBEL       CLEAR     10  -5  50 N5        30.41R WCI   2
LONE ROCK      CLOUDY    11  -6  46 N5        30.38R WCI   3
PLATTEVILLE    CLEAR      7  -6  53 NW7       30.36R WCI  -4
FORT MC COY    CLEAR      7  -7  52 NW7       30.40R WCI  -4
CAMP DOUGLAS   PTCLDY     9  -6  52 NW5       30.36R WCI   0
VIROQUA        FAIR       5  -6  61 N9        30.34S WCI -10
WIS DELLS      CLEAR      9  -8  45 N5        30.35R WCI   1
$$

...ELSEWHERE IN WISCONSIN...


CITY           SKY/WX    TMP DP  RH WIND       PRES   REMARKS
MILWAUKEE      PTCLDY    11  -6  46 NW9       30.34R WCI  -2
MADISON        PTCLDY    10  -6  48 NW6       30.35R WCI   0
GREEN BAY      CLEAR     10  -2  58 SW3       30.33R
EAU CLAIRE     CLEAR      7 -10  46 NW3       30.39S
BLACK RVR FLS  FAIR       8 -10  44 NW6       30.39R WCI  -2
MEDFORD        CLEAR      5  -8  55 W6        30.29R WCI  -6
WAUSAU         CLEAR      9  -9  44 NW7       30.29R WCI  -2
WIS RAPIDS     CLEAR      6  -8  52 W9        30.36R WCI  -8
MARSHFIELD     CLEAR      6  -8  52 NW8       30.32R WCI  -7
RICE LAKE      CLEAR      6 -10  47 W6        30.39R WCI  -4
$$

...NORTHEAST IOWA...


CITY           SKY/WX    TMP DP  RH WIND       PRES   REMARKS
DECORAH        CLEAR      3  -9  55 NW13      30.39R WCI -14
MASON CITY     CLEAR     -1  -9  68 NW12      30.46R WCI -18
CHARLES CITY   CLEAR      0  -9  65 NW10      30.44R WCI -17
OELWEIN        CLEAR     -2 -11  65 NW12      30.43R WCI -20
$$

...ELSEWHERE IN IOWA...


CITY           SKY/WX    TMP DP  RH WIND       PRES   REMARKS
DES MOINES     PTCLDY     7  -6  55 NW14      30.50R WCI -10
IOWA CITY      CLEAR      6  -4  63 NW13      30.47R WCI -10
FORT DODGE     PTCLDY     1  -8  66 NW6       30.49R WCI -10
$$

...NORTHERN ILLINOIS...


CITY           SKY/WX    TMP DP  RH WIND       PRES   REMARKS
CHICAGO-OHARE  PTCLDY    11  -4  51 NW10      30.32R WCI  -3
CHICAGO-MIDWAY PTCLDY    16   0  49 NW12      30.33R WCI   3
MOLINE         CLEAR      9  -3  58 NW15      30.41R WCI  -8
ROCKFORD       CLEAR     10  -5  50 N7        30.38R WCI  -1
PEORIA         CLOUDY    13   5  70 N5        30.40R HAZE    WCI   5
$$

NOTE: "FAIR" INDICATES FEW OR NO CLOUDS BELOW 12,000 FEET WITH NO
SIGNIFICANT WEATHER AND/OR OBSTRUCTIONS TO VISIBILITY. WIND
SPEEDS ARE IN MILES-PER-HOUR.



USA.gov is the U.S. government's official web portal to all federal, state and local government web resources and services.